Time,TemperatureF,DewpointF,PressureIn,WindDirection,WindDirectionDegrees,WindSpeedMPH,WindSpeedGustMPH,Humidity,HourlyPrecipIn,Conditions,Clouds,dailyrainin,SoftwareType,DateUTC
2016-02-11 00:28:00,11.7,6.0,30.07,NW,307,2.0,8.0,77,0.00,,,0.00,weatherlink.com 1.10,2016-02-11 05:28:00,
2016-02-11 00:43:00,11.5,6.0,30.07,NW,315,3.0,6.0,77,0.00,,,0.00,weatherlink.com 1.10,2016-02-11 05:43:00,
2016-02-11 00:58:00,11.4,6.0,30.08,NW,313,3.0,9.0,78,0.00,,,0.00,weatherlink.com 1.10,2016-02-11 05:58:00,
2016-02-11 01:13:00,11.0,6.0,30.09,NW,308,2.0,8.0,79,0.00,,,0.00,weatherlink.com 1.10,2016-02-11 06:13:00,
2016-02-11 01:28:00,10.9,6.0,30.09,WNW,294,3.0,8.0,80,0.00,,,0.00,weatherlink.com 1.10,2016-02-11 06:28:00,
2016-02-11 01:58:00,10.3,6.0,30.09,WNW,294,2.0,7.0,82,0.00,,,0.00,weatherlink.com 1.10,2016-02-11 06:58:00,
2016-02-11 02:14:00,10.3,6.0,30.09,WNW,294,2.0,7.0,82,0.00,,,0.00,weatherlink.com 1.10,2016-02-11 07:14:00,
2016-02-11 02:29:00,10.3,6.0,30.10,WNW,296,3.0,7.0,82,0.00,,,0.00,weatherlink.com 1.10,2016-02-11 07:29:00,
2016-02-11 02:44:00,10.1,6.0,30.10,WNW,296,2.0,4.0,83,0.00,,,0.00,weatherlink.com 1.10,2016-02-11 07:44:00,
2016-02-11 02:59:00,9.9,6.0,30.11,WNW,300,3.0,4.0,83,0.00,,,0.00,weatherlink.com 1.10,2016-02-11 07:59:00,
2016-02-11 03:14:00,9.6,5.0,30.11,WNW,300,1.0,4.0,83,0.00,,,0.00,weatherlink.com 1.10,2016-02-11 08:14:00,
2016-02-11 03:29:00,9.3,5.0,30.11,WNW,300,1.0,3.0,84,0.00,,,0.00,weatherlink.com 1.10,2016-02-11 08:29:00,
2016-02-11 03:44:00,9.2,5.0,30.11,WNW,300,2.0,3.0,84,0.00,,,0.00,weatherlink.com 1.10,2016-02-11 08:44:00,
2016-02-11 03:59:00,9.0,5.0,30.11,WNW,300,0.0,2.0,85,0.00,,,0.00,weatherlink.com 1.10,2016-02-11 08:59:00,
2016-02-11 04:14:00,9.0,5.0,30.11,WNW,300,1.0,3.0,85,0.00,,,0.00,weatherlink.com 1.10,2016-02-11 09:14:00,
2016-02-11 04:29:00,9.9,7.0,30.12,WNW,300,0.0,3.0,86,0.00,,,0.00,weatherlink.com 1.10,2016-02-11 09:29:00,
2016-02-11 04:44:00,10.4,7.0,30.12,WNW,300,3.0,4.0,85,0.00,,,0.00,weatherlink.com 1.10,2016-02-11 09:44:00,
2016-02-11 04:59:00,11.0,7.0,30.12,WNW,301,2.0,5.0,85,0.00,,,0.00,weatherlink.com 1.10,2016-02-11 09:59:00,
2016-02-11 05:14:00,11.6,7.0,30.13,NW,317,2.0,8.0,83,0.00,,,0.00,weatherlink.com 1.10,2016-02-11 10:14:00,
2016-02-11 05:29:00,11.4,7.0,30.14,NW,317,1.0,4.0,83,0.00,,,0.00,weatherlink.com 1.10,2016-02-11 10:29:00,
2016-02-11 05:44:00,11.9,7.0,30.15,NW,316,2.0,5.0,82,0.00,,,0.00,weatherlink.com 1.10,2016-02-11 10:44:00,
2016-02-11 05:59:00,12.1,8.0,30.15,NW,315,2.0,5.0,82,0.00,,,0.00,weatherlink.com 1.10,2016-02-11 10:59:00,
2016-02-11 06:14:00,11.8,7.0,30.16,NW,315,1.0,6.0,82,0.00,,,0.00,weatherlink.com 1.10,2016-02-11 11:14:00,
2016-02-11 06:29:00,10.5,6.0,30.16,WSW,242,2.0,4.0,83,0.00,,,0.00,weatherlink.com 1.10,2016-02-11 11:29:00,
2016-02-11 06:44:00,9.9,6.0,30.16,West,267,1.0,4.0,83,0.00,,,0.00,weatherlink.com 1.10,2016-02-11 11:44:00,
2016-02-11 06:59:00,10.1,6.0,30.17,NW,315,1.0,3.0,84,0.00,,,0.00,weatherlink.com 1.10,2016-02-11 11:59:00,
2016-02-11 07:14:00,9.8,6.0,30.17,NW,315,1.0,3.0,85,0.00,,,0.00,weatherlink.com 1.10,2016-02-11 12:14:00,
2016-02-11 07:29:00,9.5,6.0,30.18,NW,315,1.0,2.0,86,0.00,,,0.00,weatherlink.com 1.10,2016-02-11 12:29:00,
2016-02-11 07:44:00,9.4,6.0,30.19,NW,315,3.0,5.0,87,0.00,,,0.00,weatherlink.com 1.10,2016-02-11 12:44:00,
2016-02-11 07:59:00,9.4,6.0,30.19,NW,315,1.0,3.0,87,0.00,,,0.00,weatherlink.com 1.10,2016-02-11 12:59:00,
2016-02-11 08:29:00,10.7,8.0,30.20,NW,315,1.0,4.0,87,0.00,,,0.00,weatherlink.com 1.10,2016-02-11 13:29:00,
2016-02-11 08:44:00,12.0,9.0,30.21,NW,315,1.0,5.0,86,0.00,,,0.00,weatherlink.com 1.10,2016-02-11 13:44:00,
2016-02-11 08:59:00,13.5,9.0,30.21,NW,311,2.0,5.0,82,0.00,,,0.00,weatherlink.com 1.10,2016-02-11 13:59:00,
2016-02-11 09:14:00,14.3,9.0,30.22,NW,323,6.0,9.0,78,0.00,,,0.00,weatherlink.com 1.10,2016-02-11 14:14:00,
2016-02-11 09:29:00,15.3,9.0,30.22,WNW,300,3.0,10.0,76,0.00,,,0.00,weatherlink.com 1.10,2016-02-11 14:29:00,
2016-02-11 09:45:00,16.2,9.0,30.22,NW,318,4.0,11.0,73,0.00,,,0.00,weatherlink.com 1.10,2016-02-11 14:45:00,
2016-02-11 10:00:00,16.7,9.0,30.23,NNW,331,6.0,11.0,71,0.00,,,0.00,weatherlink.com 1.10,2016-02-11 15:00:00,
2016-02-11 10:15:00,17.0,8.0,30.24,WNW,288,4.0,13.0,69,0.00,,,0.00,weatherlink.com 1.10,2016-02-11 15:15:00,
2016-02-11 10:30:00,17.4,8.0,30.24,North,355,3.0,10.0,67,0.00,,,0.00,weatherlink.com 1.10,2016-02-11 15:30:00,
2016-02-11 10:45:00,17.9,9.0,30.24,WNW,302,7.0,15.0,67,0.00,,,0.00,weatherlink.com 1.10,2016-02-11 15:45:00,
2016-02-11 11:00:00,17.9,8.0,30.25,NW,320,5.0,12.0,65,0.00,,,0.00,weatherlink.com 1.10,2016-02-11 16:00:00,
2016-02-11 11:15:00,17.6,7.0,30.25,NNW,336,5.0,12.0,62,0.00,,,0.00,weatherlink.com 1.10,2016-02-11 16:15:00,
2016-02-11 11:30:00,17.8,6.0,30.25,WNW,292,4.0,11.0,60,0.00,,,0.00,weatherlink.com 1.10,2016-02-11 16:30:00,
2016-02-11 11:45:00,18.9,7.0,30.26,North,11,10.0,13.0,59,0.00,,,0.00,weatherlink.com 1.10,2016-02-11 16:45:00,
2016-02-11 12:00:00,18.9,8.0,30.26,NE,36,3.0,12.0,62,0.00,,,0.00,weatherlink.com 1.10,2016-02-11 17:00:00,
2016-02-11 12:15:00,18.9,7.0,30.26,NW,316,4.0,9.0,61,0.00,,,0.00,weatherlink.com 1.10,2016-02-11 17:15:00,
2016-02-11 12:30:00,19.2,9.0,30.26,NNE,22,9.0,11.0,64,0.00,,,0.00,weatherlink.com 1.10,2016-02-11 17:30:00,
2016-02-11 12:45:00,18.7,10.0,30.26,NNE,27,5.0,11.0,69,0.00,,,0.00,weatherlink.com 1.10,2016-02-11 17:45:00,
2016-02-11 13:00:00,19.6,10.0,30.26,NNE,18,9.0,9.0,66,0.00,,,0.00,weatherlink.com 1.10,2016-02-11 18:00:00,
2016-02-11 13:15:00,19.2,10.0,30.26,NNE,24,8.0,15.0,66,0.00,,,0.00,weatherlink.com 1.10,2016-02-11 18:15:00,
2016-02-11 13:30:00,19.9,9.0,30.25,NW,312,5.0,11.0,63,0.00,,,0.00,weatherlink.com 1.10,2016-02-11 18:30:00,
2016-02-11 13:45:00,20.5,9.0,30.25,WNW,296,4.0,10.0,62,0.00,,,0.00,weatherlink.com 1.10,2016-02-11 18:45:00,
2016-02-11 14:00:00,20.6,9.0,30.26,NW,312,4.0,11.0,61,0.00,,,0.00,weatherlink.com 1.10,2016-02-11 19:00:00,
2016-02-11 14:15:00,19.9,9.0,30.26,NNW,335,3.0,9.0,64,0.00,,,0.00,weatherlink.com 1.10,2016-02-11 19:15:00,